Location: Macksville High School
(37.9611°N, 99.9654°W)
Time: 01:37:16
(UTC+00:00)

H-2A R/B - Pass Details

Date: 17 January 2021
Orbit: 500 x 539 km, 97.3° (Epoch: 07 March)

Event Time Altitude Azimuth Distance (km) Brightness Sun altitude
Rises 12:27:13 0° 6° (N) 2,602 6.2 -16.9°
Reaches altitude 10° 12:29:20 10° 1° (N) 1,716 5.2 -16.5°
Maximum altitude 12:32:56 52° 285° (WNW) 633 2.7 -15.8°
Drops below altitude 10° 12:36:31 10° 208° (SSW) 1,716 5.2 -15.1°
Sets 12:38:38 0° 203° (SSW) 2,603 6.2 -14.7°
